Flag for United Kingdom Weather past 2 weeks in Carlisle, England, United Kingdom

Now
42 °F

Quite cool.


Feels Like: N/A
Forecast: N/A
Wind: N/A

Location: Carlisle

Current Time: Dec 19, 2014 at 9:01:40 PM

Latest Report: Dec 19, 2014 at 8:00 PM


Visibility: 22 mi

Pressure: 29.89 "Hg

Humidity: 87%

Dew point: 39 °F

Location of CarlisleLocation

Historic Weather in Carlisle — Graph

°F

Carlisle temperature yesterday

Maximum temperature yesterday: 55 °F (at 1:00 PM)
Minimum temperature yesterday: 46 °F (at 11:00 PM)
Average temperature yesterday: 51 °F

Past Weeks' High & Low Weather Summary

 TemperatureHumidityPressure
High55 °F (Dec 18, 1:00 PM)100% (Dec 4, 8:00 PM)30.32 "Hg (Dec 4, 8:00 PM)
Low28 °F (Dec 6, 4:00 AM)69% (Dec 10, 1:00 PM)29.18 "Hg (Dec 12, 3:00 AM)
Average42 °F88%29.73 "Hg
* Reported Dec 4 7:00 PM — Dec 19 7:00 PM, Carlisle, Weather by CustomWeather, © 2014

Note: Actual official high and low records may vary slightly from our data, if they occured in-between our weather recording intervals... More about our weather records

Advertising

Carlisle weather history for previous 24 hours

 ConditionsComfort  
Time TempWeatherWind HumidityBarometerVisibility
7:00 PM
Dec 19
42 °FQuite cool.N/A82%29.87 "Hg22 mi
6:00 PM43 °FQuite cool.N/A79%29.85 "Hg25 mi
5:00 PM43 °FQuite cool.N/A77%29.84 "Hg22 mi
4:00 PM44 °FQuite cool.N/A78%29.83 "Hg28 mi
3:00 PM42 °FQuite cool.N/A81%29.81 "Hg25 mi
2:00 PM44 °FQuite cool.N/A75%29.79 "Hg22 mi
1:00 PM45 °FCool.N/A69%29.76 "Hg28 mi
12:00 PM44 °FQuite cool.N/A70%29.75 "Hg22 mi
11:00 AM44 °FQuite cool.N/A73%29.73 "Hg25 mi
10:00 AM43 °FQuite cool.N/A74%29.72 "Hg22 mi
9:00 AM42 °FQuite cool.N/A78%29.70 "Hg25 mi
8:00 AM42 °FQuite cool.N/A81%29.66 "Hg25 mi
7:00 AM44 °FQuite cool.N/A78%29.64 "Hg22 mi
6:00 AM44 °FQuite cool.N/A74%29.62 "Hg22 mi
5:00 AM44 °FQuite cool.N/A71%29.61 "Hg22 mi
4:00 AM44 °FQuite cool.N/A76%29.60 "Hg22 mi
3:00 AM44 °FQuite cool.N/A72%29.59 "Hg22 mi
2:00 AM44 °FQuite cool.N/A77%29.59 "Hg22 mi
1:00 AM44 °FQuite cool.N/A76%29.59 "Hg25 mi
12:00 AM45 °FCool.N/A77%29.58 "Hg28 mi
11:00 PM
Dec 18
46 °FCool.N/A82%29.57 "Hg31 mi
10:00 PM46 °FCool.N/A87%29.54 "Hg47 mi
9:00 PM47 °FCool.N/A88%29.54 "Hg34 mi
Weather by CustomWeather, © 2014

See weather overviewHow to use our weather pages